,,Stat6,,Stat2,,Stat8,,Stat9,,Stat10,,Wind1,,Wind1,
time,status,PA1M_AVG,status,PR1M_SUM,status,RH1M_AVG,status,SR1M_AVG,status,TA1M_AVG,status,W1dAve1m,status,W1sAve1m,
2004-09-10, 00:00:00,VALID,918.632,VALID,0,VALID,91.6611,VALID,0,VALID,20.4984,VALID,55,VALID,0.341202,
2004-09-10, 00:01:00,VALID,918.627,VALID,0,VALID,92.2104,VALID,-0.0339617,VALID,20.3264,VALID,49,VALID,0.587358,
2004-09-10, 00:02:00,VALID,918.624,VALID,0,VALID,92.7521,VALID,-0.0509425,VALID,20.1719,VALID,37,VALID,1.03468,
2004-09-10, 00:03:00,VALID,918.617,VALID,0,VALID,93.4337,VALID,-0.0679233,VALID,20.0519,VALID,36,VALID,0.568407,
2004-09-10, 00:04:00,VALID,918.598,VALID,0,VALID,93.7249,VALID,-0.0509425,VALID,20.0231,VALID,36,VALID,0.24564,
2004-09-10, 00:05:00,VALID,918.585,VALID,0,VALID,93.9525,VALID,-0.0339617,VALID,20.0072,VALID,36,VALID,0.321948,
2004-09-10, 00:06:00,VALID,918.587,VALID,0,VALID,94.259,VALID,-0.0169808,VALID,20.0045,VALID,36,VALID,0.490412,
2004-09-10, 00:07:00,VALID,918.566,VALID,0,VALID,94.1216,VALID,-0.0679233,VALID,19.9499,VALID,36,VALID,0.555043,
2004-09-10, 00:08:00,VALID,918.551,VALID,0,VALID,95.1465,VALID,-0.0509425,VALID,19.9074,VALID,33,VALID,0.535633,
2004-09-10, 00:09:00,VALID,918.54,VALID,0,VALID,96.6915,VALID,-0.0679233,VALID,19.9362,VALID,32,VALID,0.478609,
2004-09-10, 00:10:00,VALID,918.538,VALID,0,VALID,97.2256,VALID,-0.0339617,VALID,19.9685,VALID,33,VALID,0.590402,
2004-09-10, 00:11:00,VALID,918.531,VALID,0,VALID,95.9934,VALID,-0.0509425,VALID,19.8947,VALID,39,VALID,0.470424,
2004-09-10, 00:12:00,VALID,918.509,VALID,0,VALID,96.7984,VALID,-0.101885,VALID,19.8557,VALID,33,VALID,0.660429,
2004-09-10, 00:13:00,VALID,918.499,VALID,0,VALID,98.0204,VALID,0,VALID,19.9173,VALID,20,VALID,0.82431,
2004-09-10, 00:14:00,VALID,918.491,VALID,0,VALID,98.9715,VALID,-0.0509425,VALID,19.9946,VALID,15,VALID,0.857701,
2004-09-10, 00:15:00,VALID,918.47,VALID,0,VALID,99.7027,VALID,-0.0509425,VALID,20.1076,VALID,351,VALID,0.788867,
2004-09-10, 00:16:00,VALID,918.467,VALID,0,VALID,99.8731,VALID,-0.0339617,VALID,20.1687,VALID,340,VALID,0.412729,
2004-09-10, 00:17:00,VALID,918.451,VALID,0,VALID,99.9049,VALID,-0.0679233,VALID,20.2045,VALID,345,VALID,0.391897,
2004-09-10, 00:18:00,VALID,918.45,VALID,0,VALID,99.8896,VALID,-0.0509425,VALID,20.2301,VALID,14,VALID,0.226376,
2004-09-10, 00:19:00,VALID,918.451,VALID,0,VALID,99.7993,VALID,-0.0849042,VALID,20.2311,VALID,352,VALID,0.0963542,
2004-09-10, 00:20:00,VALID,918.436,VALID,0,VALID,99.9189,VALID,-0.0509425,VALID,20.2733,VALID,275,VALID,0.0569444,
2004-09-10, 00:21:00,VALID,918.431,VALID,0,VALID,99.6468,VALID,-0.0849042,VALID,20.2475,VALID,275,VALID,0.0487351,
2004-09-10, 00:22:00,VALID,918.42,VALID,0,VALID,99.6035,VALID,-0.0509425,VALID,20.2149,VALID,275,VALID,0.00223214,
2004-09-10, 00:23:00,VALID,918.388,VALID,0,VALID,99.5921,VALID,-0.0679233,VALID,20.195,VALID,275,VALID,0,
2004-09-10, 00:24:00,VALID,918.385,VALID,0,VALID,99.62,VALID,-0.0849042,VALID,20.198,VALID,275,VALID,0,
2004-09-10, 00:25:00,VALID,918.368,VALID,0,VALID,99.4738,VALID,-0.0169808,VALID,20.1908,VALID,257,VALID,0.0480183,
2004-09-10, 00:26:00,VALID,918.35,VALID,0,VALID,98.81,VALID,0.0339617,VALID,20.0964,VALID,159,VALID,0.596354,
2004-09-10, 00:27:00,VALID,918.336,VALID,0,VALID,98.5036,VALID,0,VALID,19.9876,VALID,144,VALID,0.744186,
2004-09-10, 00:28:00,VALID,918.316,VALID,0,VALID,98.9156,VALID,0,VALID,19.936,VALID,142,VALID,0.709821,
2004-09-10, 00:29:00,VALID,918.302,VALID,0,VALID,99.4687,VALID,0,VALID,19.9518,VALID,139,VALID,0.57649,
2004-09-10, 00:30:00,VALID,918.272,VALID,0,VALID,99.9283,VALID,0,VALID,20.0264,VALID,104,VALID,0.787829,
2004-09-10, 00:31:00,VALID,918.237,VALID,0,VALID,100,VALID,0.0169808,VALID,20.1588,VALID,77,VALID,0.800586,
2004-09-10, 00:32:00,VALID,918.213,VALID,0,VALID,100,VALID,0,VALID,20.2365,VALID,72,VALID,0.919643,
2004-09-10, 00:33:00,VALID,918.188,VALID,0,VALID,99.9855,VALID,0,VALID,20.2233,VALID,100,VALID,0.880504,
2004-09-10, 00:34:00,VALID,918.162,VALID,0,VALID,99.9557,VALID,-0.101885,VALID,20.1732,VALID,82,VALID,0.918636,
2004-09-10, 00:35:00,VALID,918.142,VALID,0,VALID,99.9133,VALID,-0.0849042,VALID,20.1307,VALID,80,VALID,0.627907,
2004-09-10, 00:36:00,VALID,918.117,VALID,0,VALID,99.8967,VALID,-0.101885,VALID,20.0892,VALID,90,VALID,0.874321,
2004-09-10, 00:37:00,VALID,918.093,VALID,0,VALID,100,VALID,-0.101885,VALID,20.0987,VALID,77,VALID,1.00859,
2004-09-10, 00:38:00,VALID,918.079,VALID,0,VALID,100,VALID,-0.101885,VALID,20.0989,VALID,69,VALID,0.868641,
2004-09-10, 00:39:00,VALID,918.053,VALID,0,VALID,100,VALID,-0.101885,VALID,20.0659,VALID,69,VALID,1.07241,
2004-09-10, 00:40:00,VALID,918.045,VALID,0,VALID,100,VALID,0.0169808,VALID,20.085,VALID,69,VALID,0.887835,
2004-09-10, 00:41:00,VALID,918.034,VALID,0,VALID,100,VALID,0.0339617,VALID,20.049,VALID,78,VALID,0.766387,
2004-09-10, 00:42:00,VALID,917.999,VALID,0,VALID,100,VALID,0.0169808,VALID,19.9968,VALID,82,VALID,0.855378,
2004-09-10, 00:43:00,VALID,917.971,VALID,0,VALID,99.9316,VALID,0.0679233,VALID,19.9551,VALID,84,VALID,0.919331,
2004-09-10, 00:44:00,VALID,917.943,VALID,0,VALID,99.8337,VALID,0,VALID,19.9069,VALID,71,VALID,0.96875,
2004-09-10, 00:45:00,VALID,917.899,VALID,0,VALID,99.6976,VALID,0,VALID,19.8811,VALID,69,VALID,1.07012,
2004-09-10, 00:46:00,VALID,917.85,VALID,0,VALID,99.4522,VALID,0.0169808,VALID,19.8485,VALID,62,VALID,1.11403,
2004-09-10, 00:47:00,VALID,917.793,VALID,0,VALID,99.1572,VALID,0,VALID,19.8195,VALID,51,VALID,1.1875,
2004-09-10, 00:48:00,VALID,917.762,VALID,0,VALID,99.0618,VALID,0.0169808,VALID,19.81,VALID,50,VALID,1.20413,
2004-09-10, 00:49:00,VALID,917.729,VALID,0,VALID,98.81,VALID,0,VALID,19.7842,VALID,44,VALID,1.02363,
2004-09-10, 00:50:00,VALID,917.704,VALID,0,VALID,98.5188,VALID,0.0169808,VALID,19.7132,VALID,60,VALID,1.11038,
2004-09-10, 00:51:00,VALID,917.674,VALID,0,VALID,98.7579,VALID,0.0169808,VALID,19.6873,VALID,50,VALID,1.1121,
2004-09-10, 00:52:00,VALID,917.657,VALID,0,VALID,98.9804,VALID,-0.0169808,VALID,19.6744,VALID,61,VALID,1.15087,
2004-09-10, 00:53:00,VALID,917.651,VALID,0,VALID,98.913,VALID,0,VALID,19.6295,VALID,62,VALID,1.02572,
2004-09-10, 00:54:00,VALID,917.644,VALID,0,VALID,98.7693,VALID,0,VALID,19.5587,VALID,59,VALID,0.911659,
2004-09-10, 00:55:00,VALID,917.634,VALID,0,VALID,98.9207,VALID,-0.0849042,VALID,19.5147,VALID,62,VALID,0.721227,
2004-09-10, 00:56:00,VALID,917.619,VALID,0,VALID,99.0275,VALID,-0.101885,VALID,19.4861,VALID,50,VALID,0.918241,
2004-09-10, 00:57:00,VALID,917.618,VALID,0,VALID,99.0033,VALID,-0.101885,VALID,19.431,VALID,43,VALID,1.05183,
2004-09-10, 00:58:00,VALID,917.598,VALID,0,VALID,99.2322,VALID,-0.101885,VALID,19.3957,VALID,61,VALID,0.890443,
2004-09-10, 00:59:00,VALID,917.578,VALID,0,VALID,99.3466,VALID,-0.0679233,VALID,19.3662,VALID,66,VALID,0.731468,
2004-09-10, 01:00:00,VALID,917.556,VALID,0,VALID,99.4051,VALID,-0.101885,VALID,19.3341,VALID,69,VALID,0.661966,
2004-09-10, 01:01:00,VALID,917.519,VALID,0,VALID,99.5501,VALID,-0.101885,VALID,19.3219,VALID,75,VALID,0.78995,
2004-09-10, 01:02:00,VALID,917.517,VALID,0,VALID,99.6239,VALID,-0.101885,VALID,19.3083,VALID,97,VALID,0.599964,
2004-09-10, 01:03:00,VALID,917.5,VALID,0,VALID,99.8311,VALID,-0.101885,VALID,19.3351,VALID,102,VALID,0.62157,
2004-09-10, 01:04:00,VALID,917.497,VALID,0,VALID,99.7536,VALID,-0.101885,VALID,19.3346,VALID,107,VALID,0.344658,
2004-09-10, 01:05:00,VALID,917.496,VALID,0,VALID,99.5043,VALID,-0.101885,VALID,19.3212,VALID,114,VALID,0.787064,
2004-09-10, 01:06:00,VALID,917.492,VALID,0,VALID,99.1877,VALID,-0.101885,VALID,19.3021,VALID,96,VALID,0.705256,
2004-09-10, 01:07:00,VALID,917.492,VALID,0,VALID,98.9614,VALID,-0.101885,VALID,19.2956,VALID,109,VALID,0.56622,
2004-09-10, 01:08:00,VALID,917.5,VALID,0,VALID,98.824,VALID,-0.0849042,VALID,19.2988,VALID,117,VALID,0.697088,
2004-09-10, 01:09:00,VALID,917.489,VALID,0,VALID,98.6002,VALID,-0.101885,VALID,19.3055,VALID,123,VALID,0.582292,
2004-09-10, 01:10:00,VALID,917.475,VALID,0,VALID,98.4667,VALID,-0.0339617,VALID,19.2946,VALID,116,VALID,0.484375,
2004-09-10, 01:11:00,VALID,917.478,VALID,0,VALID,98.2989,VALID,0,VALID,19.2822,VALID,107,VALID,0.579459,
2004-09-10, 01:12:00,VALID,917.467,VALID,0,VALID,98.3014,VALID,0,VALID,19.2658,VALID,105,VALID,0.531783,
2004-09-10, 01:13:00,VALID,917.459,VALID,0,VALID,98.3014,VALID,0,VALID,19.2532,VALID,109,VALID,0.622337,
2004-09-10, 01:14:00,VALID,917.451,VALID,0,VALID,98.0712,VALID,-0.0169808,VALID,19.2437,VALID,113,VALID,1.06955,
2004-09-10, 01:15:00,VALID,917.43,VALID,0,VALID,97.7012,VALID,0,VALID,19.279,VALID,117,VALID,0.782493,
2004-09-10, 01:16:00,VALID,917.41,VALID,0,VALID,97.2231,VALID,-0.0169808,VALID,19.318,VALID,132,VALID,0.588224,
2004-09-10, 01:17:00,VALID,917.39,VALID,0,VALID,96.717,VALID,0,VALID,19.3309,VALID,151,VALID,0.903832,
2004-09-10, 01:18:00,VALID,917.384,VALID,0,VALID,96.3736,VALID,-0.0169808,VALID,19.3503,VALID,152,VALID,0.898065,
2004-09-10, 01:19:00,VALID,917.372,VALID,0,VALID,96.0328,VALID,-0.0169808,VALID,19.3659,VALID,92,VALID,0.575763,
2004-09-10, 01:20:00,VALID,917.369,VALID,0,VALID,95.8701,VALID,-0.0169808,VALID,19.3796,VALID,85,VALID,0.405273,
2004-09-10, 01:21:00,VALID,917.362,VALID,0,VALID,95.8141,VALID,0,VALID,19.4019,VALID,84,VALID,0.458629,
2004-09-10, 01:22:00,VALID,917.377,VALID,0,VALID,95.6336,VALID,-0.0169808,VALID,19.4119,VALID,74,VALID,0.567765,
2004-09-10, 01:23:00,VALID,917.362,VALID,0,VALID,95.453,VALID,0,VALID,19.4141,VALID,92,VALID,0.574405,
2004-09-10, 01:24:00,VALID,917.375,VALID,0,VALID,95.2114,VALID,-0.0169808,VALID,19.4407,VALID,104,VALID,0.553961,
2004-09-10, 01:25:00,VALID,917.374,VALID,0,VALID,95.013,VALID,-0.0169808,VALID,19.4665,VALID,97,VALID,0.641602,
2004-09-10, 01:26:00,VALID,917.37,VALID,0,VALID,94.8172,VALID,-0.0679233,VALID,19.4797,VALID,94,VALID,0.671512,
2004-09-10, 01:27:00,VALID,917.36,VALID,0,VALID,94.4624,VALID,-0.0509425,VALID,19.5052,VALID,96,VALID,0.476389,
2004-09-10, 01:28:01,VALID,917.367,VALID,0,VALID,94.0288,VALID,-0.0339617,VALID,19.5507,VALID,103,VALID,0.369606,
2004-09-10, 01:29:01,VALID,917.361,VALID,0,VALID,93.5354,VALID,0,VALID,19.5962,VALID,116,VALID,0.758929,
2004-09-10, 01:30:00,VALID,917.366,VALID,0,VALID,93.1705,VALID,-0.0169808,VALID,19.628,VALID,116,VALID,0.355469,
2004-09-10, 01:31:01,VALID,917.377,VALID,0,VALID,93.0306,VALID,-0.0169808,VALID,19.6443,VALID,109,VALID,0.613917,
2004-09-10, 01:32:00,VALID,917.376,VALID,0,VALID,92.9263,VALID,-0.0169808,VALID,19.628,VALID,129,VALID,0.624822,
2004-09-10, 01:33:00,VALID,917.388,VALID,0,VALID,93.1311,VALID,-0.0169808,VALID,19.6287,VALID,136,VALID,0.835417,
2004-09-10, 01:34:00,VALID,917.388,VALID,0,VALID,93.2048,VALID,-0.0169808,VALID,19.615,VALID,154,VALID,0.661644,
2004-09-10, 01:35:00,VALID,917.39,VALID,0,VALID,93.2239,VALID,0,VALID,19.6446,VALID,127,VALID,0.26726,
2004-09-10, 01:36:01,VALID,917.384,VALID,0,VALID,93.2747,VALID,-0.0169808,VALID,19.6342,VALID,126,VALID,0.299361,
2004-09-10, 01:37:00,VALID,917.371,VALID,0,VALID,93.1221,VALID,0,VALID,19.6379,VALID,126,VALID,0.0969893,
2004-09-10, 01:38:00,VALID,917.365,VALID,0,VALID,92.8487,VALID,-0.0169808,VALID,19.6481,VALID,126,VALID,0,
2004-09-10, 01:39:00,VALID,917.352,VALID,0,VALID,91.9612,VALID,0,VALID,19.5673,VALID,45,VALID,0.1633,
2004-09-10, 01:40:01,VALID,917.328,VALID,0,VALID,92.7368,VALID,-0.0169808,VALID,19.4764,VALID,146,VALID,0.364702,
2004-09-10, 01:41:00,VALID,917.319,VALID,0,VALID,93.0764,VALID,0,VALID,19.4831,VALID,170,VALID,0.0797991,
2004-09-10, 01:42:00,VALID,917.279,VALID,0,VALID,92.8284,VALID,-0.0509425,VALID,19.4734,VALID,170,VALID,0,
2004-09-10, 01:43:00,VALID,917.262,VALID,0,VALID,92.714,VALID,-0.0339617,VALID,19.4608,VALID,170,VALID,0.0149148,
2004-09-10, 01:44:00,VALID,917.235,VALID,0,VALID,92.199,VALID,-0.0169808,VALID,19.3957,VALID,167,VALID,0.00941051,
2004-09-10, 01:45:00,VALID,917.22,VALID,0,VALID,92.8322,VALID,-0.0169808,VALID,19.3768,VALID,143,VALID,0.239211,
2004-09-10, 01:46:00,VALID,917.198,VALID,0,VALID,92.4596,VALID,-0.0169808,VALID,19.3798,VALID,114,VALID,0.062686,
2004-09-10, 01:47:01,VALID,917.194,VALID,0,VALID,91.5314,VALID,-0.0339617,VALID,19.2926,VALID,75,VALID,0.320313,
2004-09-10, 01:48:00,VALID,917.176,VALID,0,VALID,92.4863,VALID,0,VALID,19.235,VALID,94,VALID,0.120508,
2004-09-10, 01:49:00,VALID,917.165,VALID,0,VALID,92.377,VALID,-0.0339617,VALID,19.2611,VALID,94,VALID,0,
2004-09-10, 01:50:01,VALID,917.175,VALID,0,VALID,92.3783,VALID,-0.0339617,VALID,19.2772,VALID,94,VALID,0,
2004-09-10, 01:51:00,VALID,917.166,VALID,0,VALID,92.1125,VALID,-0.0509425,VALID,19.2832,VALID,94,VALID,0.0369792,
2004-09-10, 01:52:00,VALID,917.168,VALID,0,VALID,91.6013,VALID,-0.0169808,VALID,19.2797,VALID,63,VALID,0.189808,
2004-09-10, 01:53:00,VALID,917.146,VALID,0,VALID,91.642,VALID,-0.0679233,VALID,19.1928,VALID,37,VALID,0.0737424,
2004-09-10, 01:54:01,VALID,917.123,VALID,0,VALID,92.4151,VALID,0,VALID,19.1024,VALID,37,VALID,0.175781,
2004-09-10, 01:55:01,VALID,917.105,VALID,0,VALID,93.1018,VALID,-0.0339617,VALID,19.0924,VALID,62,VALID,0.0594815,
2004-09-10, 01:56:00,VALID,917.065,VALID,0,VALID,92.953,VALID,-0.0169808,VALID,19.1079,VALID,122,VALID,0.64169,
2004-09-10, 01:57:00,VALID,917.054,VALID,0,VALID,91.6331,VALID,0,VALID,19.1178,VALID,21,VALID,0.604106,
2004-09-10, 01:58:01,VALID,917.015,VALID,0,VALID,92.2218,VALID,0,VALID,19.0537,VALID,64,VALID,0.633903,
2004-09-10, 01:59:00,VALID,917.003,VALID,0,VALID,93.0929,VALID,0,VALID,19.0698,VALID,79,VALID,0.756324,
2004-09-10, 02:00:00,VALID,916.98,VALID,0,VALID,92.9289,VALID,-0.0169808,VALID,19.1536,VALID,81,VALID,0.492188,
2004-09-10, 02:01:00,VALID,916.969,VALID,0,VALID,92.2562,VALID,0,VALID,19.2211,VALID,139,VALID,0.79668,
2004-09-10, 02:02:00,VALID,916.978,VALID,0,VALID,91.5581,VALID,0,VALID,19.2762,VALID,114,VALID,0.73274,
2004-09-10, 02:03:00,VALID,916.974,VALID,0,VALID,90.8778,VALID,0.0169808,VALID,19.3244,VALID,141,VALID,0.517485,
2004-09-10, 02:04:01,VALID,916.971,VALID,0,VALID,90.3717,VALID,0,VALID,19.3731,VALID,143,VALID,0.779576,
2004-09-10, 02:05:00,VALID,916.979,VALID,0,VALID,90.0118,VALID,0.0169808,VALID,19.4158,VALID,128,VALID,0.902876,
2004-09-10, 02:06:00,VALID,916.967,VALID,0,VALID,90.1631,VALID,0.0169808,VALID,19.4022,VALID,137,VALID,0.678779,
2004-09-10, 02:07:00,VALID,916.956,VALID,0,VALID,90.2369,VALID,0,VALID,19.4022,VALID,145,VALID,0.827934,
2004-09-10, 02:08:00,VALID,916.95,VALID,0,VALID,90.35,VALID,0,VALID,19.4121,VALID,147,VALID,1.10859,
2004-09-10, 02:09:00,VALID,916.93,VALID,0,VALID,90.0372,VALID,0,VALID,19.4511,VALID,152,VALID,1.53196,
2004-09-10, 02:10:00,VALID,916.9,VALID,0,VALID,88.8559,VALID,0,VALID,19.5475,VALID,150,VALID,1.65854,
2004-09-10, 02:11:01,VALID,916.895,VALID,0,VALID,88.1858,VALID,0,VALID,19.7154,VALID,157,VALID,1.53089,
2004-09-10, 02:12:00,VALID,916.882,VALID,0,VALID,86.9854,VALID,0,VALID,19.8388,VALID,147,VALID,1.57292,
2004-09-10, 02:13:00,VALID,916.88,VALID,0,VALID,86.2835,VALID,0,VALID,19.9193,VALID,146,VALID,1.44569,
2004-09-10, 02:14:01,VALID,916.884,VALID,0,VALID,85.8409,VALID,-0.0169808,VALID,19.9837,VALID,148,VALID,1.55309,
2004-09-10, 02:15:00,VALID,916.885,VALID,0,VALID,85.2102,VALID,-0.0169808,VALID,20.0547,VALID,150,VALID,1.18006,
2004-09-10, 02:16:00,VALID,916.868,VALID,0,VALID,84.7181,VALID,0,VALID,20.0999,VALID,135,VALID,1.12434,
2004-09-10, 02:17:00,VALID,916.881,VALID,0,VALID,84.9012,VALID,0,VALID,20.1258,VALID,162,VALID,1.33647,
2004-09-10, 02:18:01,VALID,916.877,VALID,0,VALID,84.905,VALID,0,VALID,20.1613,VALID,154,VALID,1.84776,
2004-09-10, 02:19:00,VALID,916.878,VALID,0,VALID,84.4485,VALID,0,VALID,20.1735,VALID,148,VALID,1.86254,
2004-09-10, 02:20:00,VALID,916.869,VALID,0,VALID,83.4948,VALID,0.0169808,VALID,20.2482,VALID,141,VALID,1.57528,
2004-09-10, 02:21:00,VALID,916.881,VALID,0,VALID,83.5317,VALID,0.0169808,VALID,20.3225,VALID,135,VALID,1.10653,
2004-09-10, 02:22:00,VALID,916.883,VALID,0,VALID,83.6996,VALID,0,VALID,20.3292,VALID,129,VALID,1.00145,
2004-09-10, 02:23:00,VALID,916.881,VALID,0,VALID,83.7491,VALID,0,VALID,20.2838,VALID,145,VALID,1.1048,
2004-09-10, 02:24:01,VALID,916.882,VALID,0,VALID,83.7186,VALID,0.0169808,VALID,20.2641,VALID,157,VALID,1.10603,
2004-09-10, 02:25:00,VALID,916.886,VALID,0,VALID,83.6703,VALID,0.0169808,VALID,20.2644,VALID,168,VALID,1.17126,
2004-09-10, 02:26:00,VALID,916.889,VALID,0,VALID,83.5775,VALID,0.0169808,VALID,20.2676,VALID,158,VALID,1.3851,
2004-09-10, 02:27:01,VALID,916.904,VALID,0,VALID,83.4236,VALID,0.0169808,VALID,20.2736,VALID,140,VALID,1.33861,
2004-09-10, 02:28:01,VALID,916.899,VALID,0,VALID,83.3321,VALID,0,VALID,20.2873,VALID,147,VALID,1.47354,
2004-09-10, 02:29:01,VALID,916.896,VALID,0,VALID,83.4109,VALID,0,VALID,20.2999,VALID,169,VALID,0.808594,
2004-09-10, 02:30:00,VALID,916.894,VALID,0,VALID,83.5991,VALID,0.0169808,VALID,20.2835,VALID,157,VALID,0.931949,
2004-09-10, 02:31:00,VALID,916.893,VALID,0,VALID,83.4808,VALID,0,VALID,20.2577,VALID,157,VALID,1.14453,
2004-09-10, 02:32:00,VALID,916.878,VALID,0,VALID,83.2723,VALID,0,VALID,20.2545,VALID,153,VALID,1.01829,
2004-09-10, 02:33:00,VALID,916.87,VALID,0,VALID,83.3804,VALID,0.0509425,VALID,20.2572,VALID,161,VALID,0.921697,
2004-09-10, 02:34:01,VALID,916.871,VALID,0,VALID,82.9531,VALID,0.0339617,VALID,20.2545,VALID,170,VALID,1.5427,
2004-09-10, 02:35:00,VALID,916.849,VALID,0,VALID,82.5691,VALID,0,VALID,20.2798,VALID,162,VALID,1.51669,
2004-09-10, 02:36:00,VALID,916.827,VALID,0,VALID,82.138,VALID,0.0169808,VALID,20.3352,VALID,162,VALID,1.18005,
2004-09-10, 02:37:00,VALID,916.818,VALID,0,VALID,82.124,VALID,0.0169808,VALID,20.3705,VALID,126,VALID,0.572218,
2004-09-10, 02:38:00,VALID,916.811,VALID,0,VALID,82.1507,VALID,-0.0169808,VALID,20.3573,VALID,152,VALID,0.880035,
2004-09-10, 02:39:00,VALID,916.785,VALID,0,VALID,82.1317,VALID,0,VALID,20.3511,VALID,160,VALID,1.1936,
2004-09-10, 02:40:00,VALID,916.791,VALID,0,VALID,82.1139,VALID,0,VALID,20.3349,VALID,146,VALID,1.01315,
2004-09-10, 02:41:00,VALID,916.777,VALID,0,VALID,82.1965,VALID,0,VALID,20.3253,VALID,129,VALID,1.23207,
2004-09-10, 02:42:00,VALID,916.743,VALID,0,VALID,81.9244,VALID,0,VALID,20.322,VALID,146,VALID,1.1557,
2004-09-10, 02:43:00,VALID,916.733,VALID,0,VALID,81.2848,VALID,0.0169808,VALID,20.3638,VALID,180,VALID,1.56345,
2004-09-10, 02:44:01,VALID,916.716,VALID,0,VALID,80.7761,VALID,0.0169808,VALID,20.4738,VALID,169,VALID,1.12284,
2004-09-10, 02:45:00,VALID,916.719,VALID,0,VALID,80.7456,VALID,0.0169808,VALID,20.5416,VALID,157,VALID,0.997461,
2004-09-10, 02:46:01,VALID,916.705,VALID,0,VALID,80.546,VALID,0.0169808,VALID,20.5608,VALID,158,VALID,1.27839,
2004-09-10, 02:47:00,VALID,916.692,VALID,0,VALID,80.6261,VALID,0.0169808,VALID,20.5804,VALID,149,VALID,0.853924,
2004-09-10, 02:48:00,VALID,916.665,VALID,0,VALID,80.579,VALID,0,VALID,20.5667,VALID,161,VALID,0.924716,
2004-09-10, 02:49:01,VALID,916.669,VALID,0,VALID,80.3692,VALID,0,VALID,20.5831,VALID,161,VALID,1.02548,
2004-09-10, 02:50:00,VALID,916.665,VALID,0,VALID,80.0996,VALID,0.0339617,VALID,20.6246,VALID,159,VALID,1.15346,
2004-09-10, 02:51:01,VALID,916.661,VALID,0,VALID,80.3018,VALID,0.0169808,VALID,20.6584,VALID,163,VALID,1.02763,
2004-09-10, 02:52:01,VALID,916.67,VALID,0,VALID,80.3323,VALID,0,VALID,20.6385,VALID,160,VALID,0.958452,
2004-09-10, 02:53:01,VALID,916.658,VALID,0,VALID,80.1225,VALID,0.0339617,VALID,20.6353,VALID,196,VALID,1.52778,
2004-09-10, 02:54:00,VALID,916.661,VALID,0,VALID,80.0653,VALID,0,VALID,20.6929,VALID,195,VALID,1.32309,
2004-09-10, 02:55:01,VALID,916.665,VALID,0,VALID,80.1607,VALID,-0.0679233,VALID,20.6977,VALID,190,VALID,1.79023,
2004-09-10, 02:56:00,VALID,916.686,VALID,0,VALID,80.1937,VALID,-0.118866,VALID,20.6856,VALID,235,VALID,0.637767,
2004-09-10, 02:57:00,VALID,916.691,VALID,0,VALID,80.4582,VALID,-0.101885,VALID,20.6692,VALID,185,VALID,1.06694,
2004-09-10, 02:58:00,VALID,916.706,VALID,0,VALID,80.71,VALID,-0.101885,VALID,20.6048,VALID,195,VALID,1.20561,
2004-09-10, 02:59:00,VALID,916.722,VALID,0,VALID,80.6769,VALID,-0.101885,VALID,20.5559,VALID,177,VALID,0.968006,
2004-09-10, 03:00:00,VALID,916.721,VALID,0,VALID,80.7774,VALID,-0.0849042,VALID,20.572,VALID,210,VALID,0.559375,
2004-09-10, 03:01:00,VALID,916.729,VALID,0,VALID,80.9707,VALID,-0.101885,VALID,20.5728,VALID,189,VALID,0.57538,
2004-09-10, 03:02:00,VALID,916.741,VALID,0,VALID,81.1589,VALID,-0.118866,VALID,20.5206,VALID,212,VALID,0.484375,
2004-09-10, 03:03:01,VALID,916.759,VALID,0,VALID,81.576,VALID,-0.101885,VALID,20.4622,VALID,192,VALID,0.479725,
2004-09-10, 03:04:00,VALID,916.746,VALID,0,VALID,81.7769,VALID,-0.118866,VALID,20.3717,VALID,188,VALID,0.683594,
2004-09-10, 03:05:01,VALID,916.748,VALID,0,VALID,81.8519,VALID,-0.101885,VALID,20.3273,VALID,183,VALID,0.972852,
2004-09-10, 03:06:01,VALID,916.752,VALID,0,VALID,81.9867,VALID,-0.101885,VALID,20.3141,VALID,174,VALID,0.706659,
2004-09-10, 03:07:01,VALID,916.745,VALID,0,VALID,82.2054,VALID,-0.0849042,VALID,20.2783,VALID,179,VALID,0.898037,
2004-09-10, 03:08:00,VALID,916.772,VALID,0,VALID,82.592,VALID,-0.101885,VALID,20.2326,VALID,134,VALID,0.952753,
2004-09-10, 03:09:01,VALID,916.769,VALID,0,VALID,82.7128,VALID,-0.118866,VALID,20.1849,VALID,162,VALID,1.21166,
2004-09-10, 03:10:01,VALID,916.784,VALID,0,VALID,82.3211,VALID,-0.0339617,VALID,20.1705,VALID,146,VALID,1.1695,
2004-09-10, 03:11:01,VALID,916.808,VALID,0,VALID,82.4025,VALID,0,VALID,20.2082,VALID,145,VALID,0.363021,
2004-09-10, 03:12:00,VALID,916.817,VALID,0,VALID,82.6416,VALID,0.0169808,VALID,20.2018,VALID,129,VALID,0.273801,
2004-09-10, 03:13:00,VALID,916.833,VALID,0,VALID,82.7103,VALID,0.0169808,VALID,20.1635,VALID,128,VALID,0.255394,
2004-09-10, 03:14:00,VALID,916.846,VALID,0,VALID,82.8094,VALID,0.0339617,VALID,20.1372,VALID,142,VALID,1.12708,
2004-09-10, 03:15:01,VALID,916.849,VALID,0,VALID,82.5398,VALID,0,VALID,20.1474,VALID,153,VALID,1.44624,
2004-09-10, 03:16:01,VALID,916.879,VALID,0,VALID,82.5373,VALID,0.0169808,VALID,20.1762,VALID,126,VALID,0.846037,
2004-09-10, 03:17:01,VALID,916.86,VALID,0,VALID,82.503,VALID,0,VALID,20.1635,VALID,107,VALID,1.46058,
2004-09-10, 03:18:01,VALID,916.881,VALID,0,VALID,82.7573,VALID,0,VALID,20.1307,VALID,127,VALID,1.19131,
2004-09-10, 03:19:01,VALID,916.894,VALID,0,VALID,82.7255,VALID,0,VALID,20.128,VALID,127,VALID,1.45647,
2004-09-10, 03:20:01,VALID,916.897,VALID,0,VALID,83.0523,VALID,0.0169808,VALID,20.1151,VALID,85,VALID,1.35701,
2004-09-10, 03:21:00,VALID,916.884,VALID,0,VALID,83.238,VALID,0.0169808,VALID,20.079,VALID,74,VALID,1.0186,
2004-09-10, 03:22:01,VALID,916.885,VALID,0,VALID,83.1375,VALID,0,VALID,20.0535,VALID,65,VALID,0.89234,
2004-09-10, 03:23:01,VALID,916.891,VALID,0,VALID,83.3028,VALID,0,VALID,20.0279,VALID,83,VALID,1.12157,
2004-09-10, 03:24:01,VALID,916.891,VALID,0,VALID,83.4719,VALID,0,VALID,20.0023,VALID,90,VALID,1.0033,
2004-09-10, 03:25:00,VALID,916.884,VALID,0,VALID,83.5953,VALID,-0.0169808,VALID,19.9929,VALID,107,VALID,0.662642,
2004-09-10, 03:26:01,VALID,916.866,VALID,0,VALID,82.4979,VALID,0,VALID,20.009,VALID,119,VALID,1.1048,
2004-09-10, 03:27:01,VALID,916.851,VALID,0,VALID,82.5157,VALID,0.0169808,VALID,20.1022,VALID,127,VALID,0.648633,
2004-09-10, 03:28:01,VALID,916.865,VALID,0,VALID,82.5882,VALID,0,VALID,20.1218,VALID,131,VALID,0.798018,
2004-09-10, 03:29:01,VALID,916.839,VALID,0,VALID,82.8845,VALID,0,VALID,20.0959,VALID,132,VALID,0.933771,
2004-09-10, 03:30:01,VALID,916.848,VALID,0,VALID,83.3041,VALID,0.0169808,VALID,20.0376,VALID,117,VALID,0.840199,
2004-09-10, 03:31:01,VALID,916.833,VALID,0,VALID,83.7784,VALID,0.0169808,VALID,19.9501,VALID,106,VALID,0.524826,
2004-09-10, 03:32:01,VALID,916.822,VALID,0,VALID,84.2247,VALID,0,VALID,19.8726,VALID,105,VALID,0.608173,
2004-09-10, 03:33:01,VALID,916.812,VALID,0,VALID,84.371,VALID,0.0169808,VALID,19.7924,VALID,104,VALID,0.767428,
2004-09-10, 03:34:01,VALID,916.798,VALID,0,VALID,84.4104,VALID,0,VALID,19.737,VALID,133,VALID,0.966025,
2004-09-10, 03:35:01,VALID,916.802,VALID,0,VALID,83.9475,VALID,0,VALID,19.7472,VALID,145,VALID,1.09654,